Home   Weather   St. John's   Past weeks

Flag for Canada Past Weather in St. John's, Newfoundland and Labrador, Canada — Yesterday and Last 2 Weeks

Now
54 °F

Sprinkles. Passing clouds.


Feels Like: 50 °F
Forecast: N/A
Wind: 13 mph from Southwest

Location: St. John's

Current Time: Aug 31, 2016 at 9:12:07 PM

Latest Report: Aug 31, 2016 at 8:30 PM


Visibility: 15 mi

Pressure: 29.88 "Hg

Humidity: 82%

Dew Point: 48 °F

Location of St. John'sLocation

Past Weather in St. John's — Graph

°F

St. John's Temperature Yesterday

Maximum temperature yesterday: 61 °F (at 6:30 AM)
Minimum temperature yesterday: 46 °F (at 10:30 PM)
Average temperature yesterday: 54 °F

High & Low Weather Summary for the Past Weeks

 TemperatureHumidityPressure
High75 °F (Aug 17, 4:30 PM)100% (Aug 18, 3:30 AM)30.24 "Hg (Aug 18, 3:30 AM)
Low45 °F (Aug 31, 3:30 AM)38% (Aug 17, 3:30 PM)29.21 "Hg (Aug 30, 10:30 AM)
Average60 °F82%29.96 "Hg
* Reported Aug 16 7:30 PM — Aug 31 7:30 PM, St. John's, Weather by CustomWeather, © 2016

Note: Actual official high and low records may vary slightly from our data, if they occured in-between our weather recording intervals... More about our weather records

Advertising

St. John's Weather History for the Previous 24 Hours

Scroll right to see more
 ConditionsComfort  
Time TempWeatherWind HumidityBarometerVisibility
7:30 PM
Wed, Aug 31
55 °FSprinkles. Partly sunny.16 mph72%29.87 "Hg15 mi
6:30 PM57 °FPartly sunny.17 mph63%29.86 "Hg15 mi
5:30 PM59 °FPartly sunny.15 mph59%29.85 "Hg15 mi
4:30 PM59 °FPartly sunny.21 mph55%29.85 "Hg15 mi
3:30 PM63 °FBroken clouds.23 mph52%29.85 "Hg15 mi
2:30 PM63 °FScattered clouds.17 mph52%29.84 "Hg15 mi
1:30 PM61 °FBroken clouds.18 mph59%29.85 "Hg15 mi
12:30 PM61 °FBroken clouds.21 mph55%29.86 "Hg15 mi
11:30 AM59 °FBroken clouds.21 mph59%29.87 "Hg15 mi
10:30 AM59 °FPartly sunny.23 mph59%29.88 "Hg15 mi
9:30 AM55 °FScattered clouds.16 mph72%29.88 "Hg15 mi
8:30 AM52 °FScattered clouds.15 mph77%29.88 "Hg15 mi
7:30 AM48 °FScattered clouds.14 mph87%29.88 "Hg15 mi
6:30 AM46 °FPassing clouds.12 mph93%29.88 "Hg15 mi
5:30 AM46 °FPassing clouds.14 mph93%29.88 "Hg15 mi
4:30 AM46 °FPassing clouds.13 mph87%29.87 "Hg15 mi
3:30 AM45 °FPassing clouds.12 mph93%29.86 "Hg15 mi
2:30 AM46 °FPassing clouds.12 mph87%29.85 "Hg15 mi
1:30 AM48 °FPassing clouds.15 mph82%29.83 "Hg15 mi
12:30 AM48 °FPassing clouds.18 mph76%29.84 "Hg15 mi
11:30 PM
Tue, Aug 30
48 °FPassing clouds.18 mph76%29.82 "Hg15 mi
10:30 PM46 °FPassing clouds.18 mph82%29.80 "Hg15 mi
9:30 PM48 °FPassing clouds.12 mph76%29.78 "Hg15 mi
Weather by CustomWeather, © 2016

See weather overviewHow to use our weather pages